星链-1215 (STARLINK-1215 )

导读 | 星芒AI

STARLINK-1215 是 SpaceX Starlink 项目中的一颗低轨通信卫星,属于第53批发射的星链卫星之一。该卫星于2022年发射,运行在约550公里高度的近地轨道,旨在为全球用户提供高速互联网服务。它采用先进的相控阵天线和激光通信技术,提高数据传输效率并减少延迟。作为星链星座的一部分,STARLINK-1215 支持偏远地区的网络覆盖,推动全球互联网普及。

基本信息
目录编号:
45225
目录名称:
STARLINK-1215
国际标识:
2020-012AZ
轨道中心:
EARTH
卫星名称:
星链-1215
卫星全名:
星链-1215 (STARLINK-1215 )
卫星状态:
在轨 (已飞行2128 天)
发射日期:
2020-02-17 UTC
国别 :
美国 (US)
星等 :
--
轨道信息
数据来源 国际轨道数据 AOE轨道数据
星历时间 2025-12-14T17:08:38+0800
1天前
查看轨道信息
2025-12-12T01:00:00+0800
4天前
查看轨道信息
半长轴 6925.345km 6925.317km
偏心率 0.0001365 0.0001297
轨道倾角 53.056° 53.057°
近地点辐角 86.582° 84.389°
升交点赤经 29.584° 41.584°
平近点角 273.532° 173.907°
近地点 546.264km 546.283km
远地点 548.156km 548.081km
周期 95.592分钟 95.591分钟
每日圈数 15.064012 15.064103
详细信息
固有亮度:
5
最大亮度:
2.5
卫星平台:
Starlink V1.0
覆盖范围:
全球
运营商:
太空探索技术公司
运营商所在国:
美国
制造商(研发单位):
太空探索技术公司
制造商所在国:
美国
使用方式:
暂无
卫星简介
星链(Starlink)计划是由太空探索技术公司(SpaceX)提出的一个巨型低轨卫星互联网星座项目,计划在2019年至2024年间在太空搭建由约1.2万颗卫星组成的“星链”网络,其中1584颗将部署在地球上空550千米处的近地轨道,并从2020年开始工作。该卫星仍在工作。
2D轨道图
3D轨道图
轨道高度分析图
轨道倾角分析图
轨道综合分析图
查看轨道综合分析图